Location: Kawakawa
(35.3830°S, 174.0670°E)
Time: 09:17:59
(UTC+13:00)

Aureole 3 Rocket - Pass Details

Date: 24 January 2019
Orbit: 399 x 1742 km, 82.5° (Epoch: 19 February)

Event Time Altitude Azimuth Distance (km) Brightness Sun altitude
Rises 21:44:00 0° 185° (S) 2,495 6.8 -12.6°
Reaches altitude 10° 21:45:51 10° 183° (S) 1,699 5.9 -12.9°
Maximum altitude 21:49:29 75° 97° (E) 607 2.9 -13.5°
Enters shadow 21:53:50 12° 11° (N) 2,047 5.3 -14.2°
